Location: Krasnoyarskiy Pitomnik
(51.1333°N, 71.6167°E)
Time: 15:26:21
(UTC+00:00)

Meteor 1-11 - Pass Details

Date: 22 October 2021
Orbit: 840 x 887 km, 81.2° (Epoch: 26 November)

Event Time Altitude Azimuth Distance (km) Brightness Sun altitude
Rises 13:40:25 0° 346° (NNW) 3,411 7.6 -15.4°
Reaches altitude 10° 13:42:50 10° 346° (NNW) 2,474 6.8 -15.8°
Maximum altitude 13:48:26 82° 260° (W) 862 4.3 -16.6°
Drops below altitude 10° 13:54:04 10° 173° (S) 2,478 6.5 -17.5°
Sets 13:56:29 0° 173° (S) 3,416 7.2 -17.9°
